Date,TemperatureHighF,TemperatureAvgF,TemperatureLowF,DewpointHighF,DewpointAvgF,DewpointLowF,HumidityHigh,HumidityAvg,HumidityLow,PressureMaxIn,PressureMinIn,WindSpeedMaxMPH,WindSpeedAvgMPH,GustSpeedMaxMPH,PrecipitationSumIn
2012-1-1,33.0,32.1,31.0,30.0,28.6,27.0,93,87,78,28.48,28.45,0,0,2,0.00
2012-1-2,30.0,28.5,28.0,27.0,26.4,26.0,92,91,89,28.38,28.19,3,1,5,0.02
2012-1-3,37.0,32.7,27.0,32.0,29.8,25.0,96,89,82,28.40,28.20,1,0,3,0.00
2012-1-4,37.0,35.5,33.0,35.0,33.6,32.0,96,93,89,28.23,28.04,2,0,4,0.03
2012-1-5,48.0,41.9,34.0,37.0,31.7,26.0,97,70,48,28.27,28.07,12,3,20,0.01
2012-1-6,41.0,38.2,32.0,30.0,28.5,26.0,85,68,55,28.27,28.16,12,2,20,0.00
2012-1-7,33.0,31.4,29.0,29.0,27.6,26.0,88,86,84,28.42,28.26,1,0,4,0.00
2012-1-8,33.0,32.2,32.0,30.0,29.2,29.0,90,89,88,28.39,28.34,1,0,3,0.00
2012-1-9,37.0,35.0,33.0,34.0,32.1,30.0,91,89,86,28.34,28.12,3,1,5,0.00
2012-1-10,44.0,37.1,28.0,31.0,23.5,13.0,94,61,40,28.61,28.12,8,2,15,0.00
2012-1-11,31.0,26.7,21.0,19.0,16.4,13.0,76,65,53,28.68,28.54,2,0,4,0.00
2012-1-12,24.0,20.5,18.0,18.0,15.1,14.0,85,80,75,28.59,28.38,1,1,5,0.00
2012-1-13,24.0,22.5,22.0,19.0,17.8,17.0,88,82,77,28.38,28.12,6,1,10,0.00
2012-1-14,26.0,22.0,22.0,19.0,19.0,19.0,88,88,88,28.12,27.91,0,0,2,0.00
2012-1-15,27.0,25.7,24.0,22.0,21.3,21.0,87,84,81,27.95,27.91,1,0,3,0.00
2012-1-16,24.0,22.2,21.0,22.0,20.0,17.0,93,92,88,28.03,27.91,0,0,2,0.00
2012-1-17,35.0,28.5,20.0,30.0,25.1,17.0,92,87,81,27.92,27.67,9,4,14,0.00
2012-1-18,29.0,17.6,15.0,25.0,14.4,12.0,89,87,81,27.90,27.83,9,2,14,0.00
2012-1-19,18.0,14.9,13.0,13.0,11.3,8.0,88,85,80,27.89,27.68,4,1,11,0.00
2012-1-20,20.0,17.0,14.0,18.0,14.3,10.0,90,88,85,27.89,27.33,0,0,2,0.00
2012-1-21,36.0,25.2,20.0,30.0,21.8,18.0,90,86,78,27.83,27.31,1,0,7,0.02
2012-1-22,30.0,28.1,26.0,28.0,25.5,22.0,96,90,85,27.89,27.73,2,0,3,0.02
2012-1-23,28.0,22.8,20.0,27.0,21.6,19.0,96,94,92,28.13,27.77,0,0,0,0.00
2012-1-24,31.0,27.9,23.0,30.0,25.6,21.0,95,91,85,28.13,27.79,0,0,0,0.00
2012-1-25,42.0,35.8,30.0,34.0,31.9,29.0,95,86,71,28.14,27.79,12,5,22,0.37
2012-1-26,36.0,34.3,31.0,33.0,28.8,20.0,88,80,62,28.48,27.98,1,0,2,0.00
2012-1-27,36.0,31.9,26.0,21.0,20.3,20.0,80,62,52,28.53,28.44,10,3,14,0.04
2012-1-28,27.0,26.7,26.0,22.0,21.7,21.0,81,81,81,28.44,28.44,0,0,0,0.00
2012-1-29,29.0,28.0,27.0,25.0,24.5,24.0,88,87,85,28.12,28.03,0,0,2,0.00
2012-1-30,44.0,41.6,39.0,38.0,35.8,31.0,90,80,73,27.96,27.71,9,6,14,0.00
2012-1-31,47.0,40.9,34.0,34.0,32.6,29.0,84,73,61,28.02,27.96,6,0,10,0.00
2012-2-1,50.0,43.3,36.0,38.0,29.4,24.0,93,61,39,28.37,27.93,24,9,36,0.07
2012-2-2,42.0,37.8,30.0,28.0,26.8,26.0,86,65,54,28.49,28.37,12,2,18,0.01
2012-2-3,41.0,34.9,28.0,30.0,27.6,25.0,89,75,63,28.46,28.35,1,0,3,0.00
2012-2-4,31.0,30.4,30.0,26.0,26.0,26.0,85,84,82,28.40,28.38,0,0,3,0.00
2012-2-5,31.0,30.4,30.0,26.0,25.6,25.0,84,83,82,28.38,28.38,4,4,7,0.00
2012-2-6,41.0,32.1,24.0,30.0,26.4,22.0,92,80,64,28.33,28.21,2,0,5,0.00
2012-2-7,41.0,32.7,26.0,29.0,26.6,23.0,90,79,62,28.22,28.08,1,0,6,0.00
2012-2-8,40.0,37.1,33.0,36.0,33.3,28.0,94,86,80,28.37,28.14,2,0,5,0.01
2012-2-9,42.0,38.7,36.0,35.0,34.0,32.0,93,83,75,28.42,28.26,3,0,5,0.02
2012-2-10,38.0,36.6,35.0,37.0,35.3,34.0,96,95,90,28.26,28.11,3,0,5,0.17
2012-2-11,49.0,39.1,35.0,42.0,36.9,34.0,97,92,75,28.13,28.06,2,0,4,0.09
2012-2-12,42.0,36.3,31.0,38.0,33.8,29.0,97,91,84,28.07,27.88,1,0,4,0.01
2012-2-13,51.0,40.8,34.0,41.0,35.6,31.0,94,82,60,27.97,27.87,6,1,10,0.01
2012-2-14,39.0,34.0,29.0,35.0,30.3,27.0,93,86,78,28.12,27.90,5,0,9,0.00
2012-2-15,48.0,35.5,27.0,33.0,29.3,25.0,94,79,52,28.33,28.12,3,0,9,0.00
2012-2-16,43.0,34.9,30.0,34.0,30.3,27.0,93,83,69,28.35,28.19,2,0,6,0.00
2012-2-17,39.0,34.3,31.0,35.0,32.1,29.0,96,92,83,28.33,27.88,6,0,11,0.16
2012-2-18,44.0,36.3,30.0,38.0,33.1,29.0,96,88,73,27.96,27.87,12,3,20,0.17
2012-2-19,45.0,38.7,31.0,34.0,28.6,24.0,94,69,51,28.00,27.89,9,4,17,0.01
2012-2-20,46.0,38.4,33.0,33.0,28.5,25.0,83,68,50,28.00,27.89,7,1,12,0.00
2012-2-21,53.0,41.7,31.0,43.0,35.4,29.0,92,79,60,27.99,27.85,18,5,34,0.01
2012-2-22,49.0,43.0,39.0,40.0,35.1,26.0,90,74,43,28.17,27.76,24,9,40,0.13
2012-2-23,50.0,41.7,36.0,32.0,28.2,24.0,79,60,37,28.28,28.16,8,3,14,0.01
2012-2-24,47.0,39.8,36.0,35.0,31.4,27.0,91,72,57,28.22,27.53,10,3,17,0.00
2012-2-25,46.0,40.3,32.0,34.0,27.3,22.0,95,62,38,28.05,27.52,15,6,26,0.01
2012-2-26,43.0,34.7,29.0,29.0,24.7,21.0,87,67,41,28.23,28.04,10,2,19,0.01
2012-2-27,39.0,29.5,21.0,27.0,22.2,16.0,92,75,50,28.26,28.01,6,1,10,0.00
2012-2-28,39.0,30.4,23.0,30.0,24.4,20.0,95,80,55,28.04,27.63,4,0,9,0.01
2012-2-29,39.0,32.7,26.0,33.0,29.1,24.0,95,87,73,27.72,27.59,4,0,8,0.21
2012-3-1,46.0,36.4,26.0,28.0,25.4,23.0,94,67,40,28.24,27.70,13,4,23,0.07
2012-3-2,52.0,40.6,30.0,33.0,28.0,22.0,78,62,46,28.32,28.20,8,1,15,0.01
2012-3-3,56.0,44.0,35.0,44.0,36.4,31.0,87,75,59,28.23,28.17,8,1,11,0.00
2012-3-4,63.0,49.7,38.0,41.0,36.6,33.0,86,63,39,28.25,27.84,13,4,20,0.00
2012-3-5,55.0,46.2,36.0,37.0,28.4,16.0,71,51,24,27.85,27.52,16,6,30,0.00
2012-3-6,46.0,37.8,31.0,28.0,20.4,11.0,80,52,27,28.24,27.77,16,7,27,0.00
2012-3-7,53.0,40.2,31.0,23.0,18.4,13.0,62,42,28,28.43,28.22,9,2,17,0.00
2012-3-8,53.0,39.5,29.0,30.0,26.9,23.0,83,62,39,28.47,28.25,6,1,11,0.00
2012-3-9,53.0,42.8,33.0,38.0,32.4,28.0,84,68,50,28.27,27.89,9,1,14,0.00
2012-3-10,58.0,47.4,38.0,40.0,36.1,-99.9,84,68,45,27.90,27.60,11,2,19,0.00
2012-3-11,54.0,44.2,33.0,39.0,29.6,17.0,87,60,30,27.74,27.46,16,4,25,0.00
2012-3-12,39.0,35.4,30.0,37.0,30.2,22.0,94,82,66,27.75,27.26,4,1,10,0.03
2012-3-13,48.0,41.4,34.0,38.0,26.8,19.0,90,58,38,27.86,27.18,15,6,23,0.02
2012-3-14,39.0,34.2,29.0,34.0,29.3,25.0,95,83,64,27.91,27.81,8,1,15,0.09
2012-3-15,50.0,40.4,34.0,46.0,37.4,32.0,96,89,75,27.84,27.55,18,4,28,0.09
2012-3-16,55.0,43.9,35.0,40.0,32.1,25.0,94,68,33,27.63,27.41,9,3,19,0.03
2012-3-17,50.0,40.9,33.0,40.0,31.3,22.0,96,71,41,27.60,27.34,11,3,17,0.42
2012-3-18,54.0,39.8,31.0,34.0,27.2,23.0,79,62,37,27.70,27.52,13,5,22,0.01
2012-3-19,52.0,41.9,35.0,24.0,18.5,12.0,51,40,22,27.83,27.69,12,4,22,0.01
2012-3-20,49.0,40.0,34.0,39.0,31.1,-99.9,94,74,45,27.90,27.52,12,4,23,0.01
2012-3-21,46.0,39.4,30.0,31.0,24.9,15.0,91,60,28,27.99,27.82,11,3,21,0.01
2012-3-22,53.0,40.4,32.0,37.0,29.3,-99.9,96,69,34,28.00,27.79,9,-6,16,0.01
2012-3-23,52.0,41.3,32.0,32.0,28.9,26.0,86,64,38,28.12,27.97,9,2,16,0.01
2012-3-24,60.0,43.0,32.0,32.0,28.2,25.0,81,59,29,28.13,27.93,10,2,15,0.00
2012-3-25,62.0,48.1,37.0,38.0,32.8,29.0,76,57,34,27.94,27.60,13,8,22,0.00
2012-3-26,57.0,49.5,42.0,38.0,34.6,31.0,79,58,41,27.75,27.60,15,6,25,0.00
2012-3-27,44.0,40.8,38.0,40.0,34.8,29.0,95,80,61,27.85,27.65,6,1,11,0.44
2012-3-28,59.0,47.1,41.0,46.0,39.2,33.0,96,77,44,27.76,27.60,11,2,19,0.44
2012-3-29,49.0,45.4,43.0,46.0,41.0,36.0,93,85,71,27.76,27.40,11,3,17,0.05
2012-3-30,57.0,46.9,41.0,42.0,36.4,25.0,95,70,35,27.67,27.42,11,3,21,0.14
2012-3-31,45.0,40.4,35.0,40.0,34.4,28.0,95,81,51,27.65,27.45,9,3,15,0.21
2012-4-1,55.0,44.8,37.0,37.0,32.0,25.0,92,64,35,28.12,27.54,12,5,19,0.01
2012-4-2,57.0,43.8,34.0,37.0,32.2,29.0,84,65,41,28.32,28.08,6,1,10,0.01
2012-4-3,56.0,47.2,40.0,38.0,33.3,25.0,80,60,42,28.08,27.76,12,2,19,0.00
2012-4-4,54.0,47.6,43.0,28.0,24.1,16.0,54,41,23,27.97,27.81,16,9,27,0.00
2012-4-5,58.0,43.6,36.0,36.0,28.3,23.0,83,56,31,28.09,27.96,10,4,19,0.01
2012-4-6,51.0,42.4,37.0,39.0,34.3,32.0,92,74,50,28.27,28.08,9,3,17,0.02
2012-4-7,59.0,44.1,32.0,36.0,31.0,27.0,89,63,33,28.35,28.23,6,2,12,0.01
2012-4-8,64.0,49.7,34.0,31.0,29.0,26.0,78,48,26,28.33,28.09,6,2,14,0.00
2012-4-9,73.0,55.8,41.0,37.0,31.7,28.0,63,42,22,28.10,27.83,10,3,16,0.00
2012-4-10,69.0,56.9,46.0,43.0,37.8,34.0,66,50,33,27.85,27.66,10,3,17,0.00
2012-4-11,65.0,54.1,47.0,45.0,39.8,36.0,71,59,42,27.71,27.43,18,7,27,0.00
2012-4-12,63.0,52.4,45.0,41.0,36.9,33.0,71,57,35,27.73,27.58,15,5,23,0.00
2012-4-13,68.0,51.2,35.0,38.0,33.3,30.0,85,54,26,27.82,27.67,14,2,22,0.00
2012-4-14,63.0,53.9,43.0,35.0,30.5,-99.9,65,43,29,28.01,27.77,18,8,27,0.00
2012-4-15,66.0,55.3,46.0,35.0,29.9,26.0,55,39,23,28.08,27.96,11,4,20,0.00
2012-4-16,58.0,51.3,46.0,44.0,37.5,31.0,82,60,44,28.06,27.91,11,5,19,0.00
2012-4-17,59.0,50.1,44.0,33.0,29.8,26.0,63,46,31,28.12,27.94,12,3,20,0.00
2012-4-18,61.0,49.4,38.0,41.0,35.3,30.0,80,60,39,28.01,27.91,14,3,23,0.00
2012-4-19,62.0,50.0,38.0,45.0,36.5,31.0,87,62,38,28.10,28.01,9,4,17,0.06
2012-4-20,65.0,52.9,40.0,44.0,37.8,31.0,93,61,30,28.11,27.96,14,5,19,0.06
2012-4-21,79.0,58.4,44.0,47.0,39.5,33.0,69,51,31,28.14,27.95,12,3,19,0.00
2012-4-22,86.0,65.7,50.0,52.0,46.0,41.0,72,51,29,28.03,27.75,11,4,21,0.00
2012-4-23,88.0,69.0,55.0,53.0,46.6,43.0,66,48,24,27.85,27.60,13,5,22,0.00
2012-4-24,76.0,64.9,53.0,51.0,46.3,43.0,74,52,34,27.73,27.65,11,6,20,0.00
2012-4-25,73.0,58.0,47.0,55.0,48.3,42.0,91,72,44,27.80,27.57,8,1,13,0.30
2012-4-26,57.0,52.5,48.0,53.0,42.1,29.0,92,70,38,27.89,27.45,14,6,26,0.36
2012-4-27,62.0,51.5,40.0,36.0,32.2,28.0,72,49,32,28.20,27.89,11,4,23,0.02
2012-4-28,74.0,57.8,48.0,46.0,37.5,-99.9,62,49,35,28.19,28.02,13,5,23,0.00
2012-4-29,74.0,59.9,49.0,47.0,41.5,39.0,70,52,37,28.07,27.68,12,4,21,0.00
2012-4-30,66.0,56.3,49.0,45.0,39.4,30.0,81,54,35,27.72,27.54,11,5,21,0.00
2012-5-1,59.0,51.4,43.0,35.0,30.8,27.0,64,47,31,27.84,27.72,10,5,18,0.00
2012-5-2,64.0,53.0,44.0,35.0,30.2,28.0,56,42,29,27.89,27.76,10,3,17,0.00
2012-5-3,53.0,48.6,43.0,47.0,41.3,29.0,91,77,41,27.81,27.64,5,1,9,0.25
2012-5-4,60.0,52.1,45.0,43.0,34.9,28.0,84,55,31,28.19,27.80,15,6,25,0.01
2012-5-5,60.0,51.4,45.0,32.0,28.4,-99.9,56,43,30,28.39,28.19,17,8,31,0.00
2012-5-6,73.0,54.9,42.0,40.0,33.2,29.0,65,46,26,28.46,28.29,9,2,19,0.00
2012-5-7,78.0,59.1,41.0,45.0,38.6,34.0,78,50,26,28.35,28.08,4,0,9,0.00
2012-5-8,83.0,63.9,49.0,48.0,41.7,39.0,71,47,25,28.09,27.83,9,2,15,0.00
2012-5-9,61.0,54.7,46.0,40.0,26.6,15.0,50,35,20,28.20,27.89,21,10,32,0.00
2012-5-10,61.0,51.3,39.0,28.0,23.9,20.0,53,35,22,28.31,28.17,12,6,23,0.00
2012-5-11,73.0,54.8,37.0,34.0,29.6,26.0,67,41,22,28.33,28.13,10,2,16,0.00
2012-5-12,80.0,58.0,42.0,39.0,31.7,-99.9,65,41,18,28.30,28.12,8,1,13,0.00
2012-5-13,91.0,67.8,49.0,46.0,38.4,33.0,59,36,19,28.21,27.97,12,2,17,0.00
2012-5-14,99.0,72.9,56.0,55.0,42.8,38.0,53,36,17,28.07,27.82,10,3,17,0.00
2012-5-15,89.0,74.0,57.0,49.0,38.9,27.0,59,31,11,27.95,27.77,17,8,29,0.00
2012-5-16,77.0,68.9,60.0,40.0,35.9,31.0,45,30,22,27.87,27.79,17,8,26,0.00
2012-5-17,69.0,61.1,53.0,39.0,30.3,11.0,56,34,14,27.90,27.78,20,9,32,0.00
2012-5-18,70.0,59.7,49.0,33.0,28.0,23.0,44,31,19,28.01,27.82,20,7,32,0.00
2012-5-19,76.0,60.3,47.0,41.0,32.5,-99.9,54,37,22,28.02,27.91,11,4,19,0.00
2012-5-20,75.0,64.5,56.0,51.0,43.5,34.0,71,47,32,27.96,27.88,8,3,14,0.00
2012-5-21,67.0,59.0,55.0,57.0,49.9,-99.9,84,74,64,27.92,27.69,7,-10,14,0.04
2012-5-22,65.0,57.0,52.0,47.0,40.6,36.0,70,55,39,27.85,27.74,10,5,19,0.03
2012-5-23,64.0,56.1,48.0,41.0,37.7,36.0,70,51,36,27.87,27.79,10,6,22,0.00
2012-5-24,68.0,56.5,49.0,44.0,38.2,35.0,63,51,32,27.86,27.69,11,5,18,0.00
2012-5-25,70.0,61.9,51.0,45.0,36.7,29.0,71,43,22,27.85,27.78,8,4,15,0.00
2012-5-26,74.0,64.4,54.0,40.0,35.5,31.0,53,36,22,27.86,27.74,12,4,19,0.00
2012-5-27,75.0,65.9,58.0,42.0,37.9,34.0,51,37,23,27.87,27.78,17,11,30,0.00
2012-5-28,72.0,62.1,54.0,42.0,38.8,36.0,57,43,29,27.95,27.85,11,6,22,0.00
2012-5-29,69.0,59.4,51.0,37.0,34.0,31.0,50,39,26,28.03,27.92,12,7,24,0.00
2012-5-30,77.0,64.3,55.0,47.0,39.2,31.0,48,40,33,28.12,28.01,13,5,23,0.00
2012-5-31,77.0,68.0,59.0,53.0,48.5,44.0,70,51,33,28.05,27.90,12,5,23,0.00
2012-6-1,82.0,69.1,59.0,58.0,50.3,46.0,69,52,38,27.91,27.69,11,4,20,0.00
2012-6-2,75.0,65.2,59.0,46.0,41.2,-99.9,54,43,30,27.81,27.69,11,5,22,0.00
2012-6-3,71.0,61.5,54.0,41.0,37.1,32.0,59,41,24,27.85,27.79,11,7,20,0.00
2012-6-4,60.0,54.5,49.0,54.0,47.8,36.0,93,80,41,27.84,27.60,6,1,11,0.19
2012-6-5,63.0,56.6,52.0,53.0,41.9,36.0,93,61,40,28.00,27.63,19,10,32,0.13
2012-6-6,65.0,56.6,51.0,36.0,33.4,30.0,53,42,28,28.01,27.95,13,8,24,0.01
2012-6-7,58.0,49.8,43.0,50.0,42.7,35.0,91,77,51,28.00,27.88,8,2,15,0.28
2012-6-8,66.0,53.7,46.0,47.0,41.9,37.0,82,65,46,27.89,27.83,9,3,16,0.21
2012-6-9,63.0,56.9,49.0,40.0,37.4,35.0,61,49,39,28.00,27.88,25,10,41,0.06
2012-6-10,75.0,64.7,57.0,45.0,40.6,39.0,52,42,31,28.06,27.99,19,12,31,0.00
2012-6-11,86.0,67.1,51.0,49.0,42.3,38.0,64,43,24,28.11,27.91,13,3,24,0.00
2012-6-12,80.0,70.1,62.0,59.0,49.3,46.0,62,48,37,27.92,27.78,12,5,19,0.00
2012-6-13,70.0,64.8,58.0,49.0,41.6,36.0,60,44,30,27.99,27.82,25,10,38,0.00
2012-6-14,76.0,62.5,53.0,42.0,37.7,34.0,55,41,27,27.99,27.85,15,8,26,0.00
2012-6-15,86.0,65.9,50.0,45.0,39.4,35.0,60,40,21,28.14,27.99,10,3,19,0.00
2012-6-16,85.0,72.0,61.0,59.0,50.2,-99.9,66,48,37,28.08,27.76,8,3,17,0.00
2012-6-17,78.0,69.4,60.0,54.0,47.1,41.0,72,47,29,27.77,27.63,16,6,30,0.00
2012-6-18,69.0,62.0,56.0,44.0,39.2,35.0,57,44,30,27.87,27.63,19,9,33,0.00
2012-6-19,74.0,63.3,54.0,42.0,39.7,36.0,59,43,28,28.06,27.87,14,7,24,0.00
2012-6-20,83.0,66.9,51.0,47.0,42.7,39.0,68,44,22,28.12,27.87,12,2,21,0.00
2012-6-21,89.0,73.5,59.0,52.0,44.8,40.0,53,37,23,27.89,27.60,9,3,15,0.00
2012-6-22,75.0,67.7,57.0,55.0,50.9,47.0,82,56,39,27.63,27.50,21,10,37,0.06
2012-6-23,77.0,62.3,53.0,56.0,51.5,42.0,93,70,42,27.82,27.58,15,4,24,0.05
2012-6-24,76.0,62.2,52.0,52.0,46.0,42.0,78,57,35,27.93,27.79,13,7,23,0.02
2012-6-25,80.0,62.6,53.0,53.0,46.2,43.0,71,56,37,27.94,27.75,20,6,30,0.01
2012-6-26,61.0,58.8,56.0,49.0,44.4,41.0,77,59,50,27.96,27.73,12,6,19,0.03
2012-6-27,81.0,64.4,50.0,49.0,44.6,40.0,68,51,31,28.02,27.86,8,2,16,0.01
2012-6-28,92.0,70.4,54.0,52.0,47.8,41.0,73,48,24,27.94,27.76,11,2,21,0.00
2012-6-29,81.0,72.7,62.0,56.0,51.9,47.0,64,49,40,27.97,27.85,10,4,17,0.00
2012-6-30,89.0,73.8,64.0,64.0,56.9,53.0,80,57,37,27.92,27.70,9,3,18,0.17
2012-7-1,81.0,71.8,64.0,54.0,49.2,40.0,66,47,26,27.85,27.77,16,6,26,0.17
2012-7-2,84.0,69.6,56.0,50.0,44.7,41.0,64,43,24,27.86,27.65,16,5,26,0.00
2012-7-3,71.0,64.5,57.0,46.0,41.3,34.0,59,44,29,28.02,27.66,12,6,28,0.00
2012-7-4,85.0,64.9,51.0,47.0,43.0,40.0,69,47,25,28.02,27.82,8,2,16,0.00
2012-7-5,94.0,73.0,56.0,53.0,46.7,41.0,65,42,22,27.93,27.82,6,2,12,0.00
2012-7-6,101.0,78.5,62.0,54.0,48.5,45.0,56,37,18,28.04,27.85,8,2,15,0.00
2012-7-7,109.0,83.0,66.0,56.0,50.8,43.0,59,36,14,28.01,27.82,9,3,18,0.00
2012-7-8,112.0,87.2,70.0,59.0,53.6,51.0,53,34,17,27.96,27.74,10,3,22,0.00
2012-7-9,108.0,86.7,71.0,62.0,56.7,52.0,64,40,17,28.01,27.72,16,5,32,0.05
2012-7-10,98.0,85.1,73.0,56.0,49.5,41.0,52,32,17,27.93,27.77,14,7,25,0.00
2012-7-11,106.0,84.0,66.0,55.0,49.1,44.0,52,32,14,27.96,27.71,14,5,22,0.00
2012-7-12,103.0,84.2,70.0,59.0,55.7,50.0,58,40,22,27.80,27.65,17,5,28,0.00
2012-7-13,100.0,84.0,73.0,64.0,58.0,55.0,55,43,25,27.88,27.68,16,7,28,0.00
2012-7-14,95.0,79.8,70.0,65.0,59.8,53.0,69,52,31,27.83,27.71,14,4,22,0.00
2012-7-15,88.0,77.7,66.0,59.0,52.9,40.0,55,44,19,27.75,27.58,13,8,25,0.00
2012-7-16,96.0,76.9,62.0,64.0,56.2,49.0,74,51,31,27.88,27.64,11,3,18,0.00
2012-7-17,90.0,77.2,67.0,66.0,61.8,59.0,84,61,39,27.83,27.65,12,2,20,0.04
2012-7-18,94.0,82.0,71.0,62.0,55.9,48.0,68,44,23,27.86,27.70,12,6,23,0.00
2012-7-19,90.0,75.6,67.0,58.0,53.8,51.0,61,48,33,27.90,27.80,13,5,24,0.00
2012-7-23,76.0,71.0,64.0,46.0,44.4,42.0,50,39,33,28.08,27.99,13,9,23,0.00
2012-7-24,94.0,72.5,56.0,54.0,49.0,44.0,66,46,24,28.02,27.81,10,2,19,0.00
2012-7-25,96.0,79.8,66.0,57.0,52.1,47.0,59,41,24,27.93,27.75,7,2,14,0.00
2012-7-26,99.0,80.1,67.0,60.0,55.0,50.0,61,44,25,27.93,27.67,15,4,25,0.00
2012-7-27,90.0,77.2,66.0,59.0,52.3,42.0,73,45,24,27.87,27.72,15,8,29,0.00
2012-7-28,95.0,76.9,65.0,50.0,46.5,44.0,48,36,18,27.96,27.84,14,6,28,0.00
2012-7-29,99.0,78.2,63.0,55.0,50.6,48.0,59,40,21,27.99,27.81,14,5,23,0.00
2012-7-30,89.0,77.2,69.0,54.0,49.4,45.0,50,39,24,27.96,27.81,17,11,28,0.00
2012-7-31,92.0,75.4,63.0,51.0,44.7,35.0,55,36,16,28.00,27.86,15,7,26,0.00
2012-8-1,93.0,77.4,61.0,50.0,45.0,38.0,56,34,17,28.06,27.86,16,7,28,0.00
2012-8-2,86.0,76.1,69.0,50.0,46.7,43.0,45,36,26,28.01,27.84,18,10,30,0.00
2012-8-3,96.0,76.6,62.0,55.0,47.1,40.0,62,39,16,28.09,27.88,11,3,18,0.00
2012-8-4,101.0,80.3,65.0,56.0,48.6,41.0,51,35,19,28.00,27.79,7,2,13,0.00
2012-8-5,105.0,84.8,68.0,58.0,53.0,48.0,53,36,19,27.88,27.73,7,2,16,0.00
2012-8-6,97.0,87.5,78.0,62.0,54.2,48.0,47,34,20,27.98,27.78,11,6,23,0.00
2012-8-7,105.0,84.7,70.0,57.0,51.9,48.0,51,35,16,28.04,27.72,17,4,27,0.00
2012-8-8,91.0,82.5,72.0,56.0,48.3,39.0,47,32,18,27.97,27.76,18,11,29,0.00
2012-8-9,92.0,75.7,62.0,52.0,47.4,40.0,58,39,19,28.09,27.85,22,5,34,0.00
2012-8-10,94.0,79.3,65.0,52.0,46.8,34.0,55,35,14,27.99,27.76,17,8,28,0.00
2012-8-11,101.0,80.5,65.0,57.0,49.9,43.0,57,38,17,27.95,27.80,15,4,27,0.00
2012-8-12,104.0,82.6,67.0,56.0,50.0,43.0,56,35,16,27.92,27.72,8,2,15,0.00
2012-8-13,99.0,84.5,72.0,59.0,44.0,26.0,47,28,8,27.92,27.73,17,7,30,0.00
2012-8-14,94.0,84.0,72.0,55.0,46.1,35.0,40,27,20,27.85,27.63,16,8,28,0.00
2012-8-15,92.0,78.4,67.0,57.0,49.4,41.0,61,39,17,27.96,27.76,8,2,15,0.00
2012-8-16,101.0,77.2,61.0,54.0,48.1,44.0,58,38,18,28.02,27.80,4,0,9,0.00
2012-8-17,97.0,79.7,63.0,58.0,50.4,45.0,59,38,21,28.00,27.80,5,0,11,0.00
2012-8-18,99.0,81.8,67.0,57.0,50.2,45.0,53,35,20,27.89,27.70,9,2,18,0.00
2012-8-19,101.0,82.9,68.0,62.0,52.2,43.0,51,36,20,27.82,27.65,16,4,26,0.00
2012-8-20,96.0,80.9,71.0,56.0,46.2,37.0,49,31,15,27.89,27.71,13,6,24,0.00
2012-8-21,93.0,76.6,65.0,55.0,46.9,39.0,55,37,16,27.80,27.67,18,5,30,0.00
2012-8-22,88.0,73.0,65.0,51.0,44.9,42.0,45,37,24,27.94,27.78,18,10,30,0.00
2012-8-23,76.0,68.6,62.0,46.0,40.7,34.0,50,37,24,27.89,27.79,26,12,41,0.00
2012-8-24,83.0,67.6,57.0,46.0,39.7,36.0,49,37,23,28.07,27.88,15,4,27,0.00
2012-8-25,92.0,68.5,50.0,47.0,41.7,36.0,71,41,19,27.96,27.70,6,1,11,0.00
2012-8-26,95.0,72.2,55.0,51.0,41.9,37.0,54,36,18,27.76,27.58,8,2,13,0.00
2012-8-27,91.0,76.3,66.0,52.0,46.4,39.0,50,36,22,27.94,27.73,9,4,16,0.00
2012-8-28,86.0,71.3,62.0,53.0,46.5,39.0,60,42,27,27.94,27.75,12,4,22,0.00
2012-8-29,79.0,68.3,59.0,46.0,42.0,39.0,57,40,28,28.05,27.89,12,5,22,0.00
2012-8-30,86.0,66.9,51.0,51.0,46.1,43.0,76,49,29,27.99,27.72,8,2,17,0.00
2012-8-31,87.0,69.6,59.0,49.0,43.6,32.0,63,43,16,27.84,27.67,13,5,25,0.00
2012-9-1,79.0,68.4,57.0,41.0,37.7,34.0,49,33,21,27.97,27.80,12,7,24,0.00
2012-9-2,83.0,71.3,62.0,45.0,41.5,36.0,49,35,22,28.02,27.90,13,7,22,0.00
2012-9-3,90.0,71.4,55.0,51.0,46.5,42.0,68,43,23,28.02,27.87,11,3,17,0.00
2012-9-4,91.0,71.3,58.0,52.0,47.6,44.0,65,45,24,28.16,27.96,8,2,15,0.00
2012-9-5,92.0,72.8,57.0,54.0,47.9,43.0,68,43,24,28.05,27.73,10,2,16,0.00
2012-9-6,90.0,70.3,57.0,50.0,44.9,38.0,63,42,20,28.09,27.90,3,0,8,0.00
2012-9-7,92.0,70.2,55.0,49.0,42.9,38.0,58,39,21,28.17,28.03,8,1,13,0.00
2012-9-8,91.0,70.7,54.0,57.0,45.9,41.0,61,43,21,28.12,27.79,12,2,22,0.08
2012-9-9,79.0,70.5,65.0,57.0,48.5,41.0,72,48,27,27.83,27.71,16,8,25,0.08
2012-9-10,66.0,61.3,54.0,47.0,39.1,33.0,69,45,30,28.12,27.77,13,5,23,0.00
2012-9-11,71.0,58.0,48.0,43.0,35.6,31.0,58,44,30,28.26,28.09,11,3,18,0.00
2012-9-12,74.0,58.2,47.0,43.0,37.0,33.0,63,46,28,28.40,28.20,8,2,14,0.00
2012-9-13,79.0,61.1,47.0,43.0,36.9,33.0,63,43,23,28.37,28.10,7,1,13,0.00
2012-9-14,77.0,62.7,51.0,51.0,41.4,37.0,62,46,35,28.11,27.89,9,1,16,0.00
2012-9-15,86.0,72.4,61.0,50.0,41.7,34.0,54,35,19,28.02,27.92,11,5,18,0.00
2012-9-16,86.0,69.5,60.0,52.0,45.0,41.0,58,43,26,28.14,27.98,9,2,17,0.00
2012-9-17,93.0,67.3,54.0,51.0,43.6,35.0,65,44,20,28.16,27.94,5,1,11,0.00
2012-9-18,80.0,63.9,51.0,55.0,44.9,38.0,64,51,36,28.03,27.91,4,0,8,0.00
2012-9-19,81.0,64.6,54.0,50.0,43.4,38.0,62,47,32,28.07,27.95,3,0,8,0.00
2012-9-20,79.0,64.2,54.0,52.0,43.2,38.0,62,47,36,28.11,27.94,6,0,11,0.00
2012-9-21,80.0,65.5,53.0,53.0,46.1,41.0,66,50,35,28.03,27.85,9,1,15,0.00
2012-9-22,78.0,66.5,59.0,56.0,47.8,-99.9,65,53,41,27.95,27.86,16,4,27,0.00
2012-9-23,76.0,63.3,56.0,55.0,49.5,46.0,71,61,46,28.04,27.92,11,2,19,0.00
2012-9-24,77.0,63.0,50.0,58.0,51.1,41.0,91,67,31,28.05,27.86,16,1,26,0.00
2012-9-25,82.0,70.2,64.0,50.0,44.8,35.0,54,41,21,27.96,27.86,16,7,26,0.00
2012-9-26,79.0,63.9,53.0,51.0,45.7,41.0,70,53,36,28.03,27.92,10,2,22,0.00
2012-9-27,77.0,63.2,53.0,51.0,45.3,42.0,70,53,37,28.08,27.88,5,1,10,0.00
2012-9-28,76.0,62.5,51.0,53.0,47.1,43.0,75,58,43,27.96,27.83,7,1,14,0.00
2012-9-29,79.0,70.6,62.0,52.0,46.5,35.0,62,44,23,28.08,27.90,14,6,26,0.00
2012-9-30,80.0,64.6,55.0,45.0,37.9,27.0,53,38,23,28.25,28.08,10,3,21,0.00
2012-10-1,80.0,67.3,51.0,53.0,45.5,39.0,64,46,33,28.24,27.87,10,2,21,0.00
2012-10-2,71.0,64.2,50.0,52.0,30.7,15.0,53,30,13,28.23,27.88,17,7,28,0.00
2012-10-3,69.0,50.8,39.0,35.0,26.5,22.0,51,39,25,28.45,28.23,5,1,12,0.00
2012-10-4,70.0,49.2,36.0,35.0,28.3,25.0,67,46,24,28.36,28.24,6,1,10,0.00
2012-10-5,68.0,48.7,34.0,33.0,27.6,24.0,72,46,25,28.41,28.27,9,0,16,0.00
2012-10-6,75.0,47.9,35.0,37.0,28.0,24.0,67,47,24,28.37,28.18,4,0,8,0.00
2012-10-7,70.0,50.7,37.0,40.0,31.4,27.0,68,49,31,28.20,27.92,2,0,8,0.00
2012-10-8,73.0,52.7,40.0,45.0,35.5,30.0,70,53,34,27.97,27.84,2,0,5,0.00
2012-10-9,75.0,57.2,46.0,48.0,41.4,36.0,73,56,32,28.07,27.91,2,0,9,0.00
2012-10-10,76.0,56.3,44.0,50.0,42.3,38.0,83,61,40,27.94,27.76,5,0,10,0.00
2012-10-11,76.0,58.3,47.0,49.0,41.2,37.0,68,54,38,27.97,27.72,6,1,11,0.00
2012-10-12,68.0,56.8,45.0,47.0,43.4,39.0,80,62,43,27.86,27.72,7,2,15,0.00
2012-10-13,69.0,60.2,52.0,53.0,49.6,46.0,85,69,48,28.06,27.86,7,2,13,0.00
2012-10-14,71.0,59.4,54.0,57.0,53.1,49.0,95,82,45,28.06,27.82,9,1,19,0.02
2012-10-15,68.0,58.7,52.0,55.0,51.9,47.0,94,80,50,27.87,27.49,7,2,12,0.10
2012-10-16,62.0,53.8,47.0,52.0,39.5,31.0,93,60,37,28.12,27.46,30,10,46,0.22
2012-10-17,62.0,50.4,42.0,39.0,35.4,32.0,73,57,39,28.27,28.11,8,2,16,0.01
2012-10-18,60.0,49.5,39.0,43.0,39.2,36.0,90,69,49,28.23,27.81,5,0,8,0.00
2012-10-19,70.0,55.0,44.0,51.0,43.4,38.0,92,68,40,27.81,27.56,10,3,19,0.00
2012-10-20,54.0,48.2,39.0,40.0,31.4,22.0,73,54,28,27.82,27.63,12,6,20,0.00
2012-10-21,51.0,39.7,29.0,35.0,31.6,27.0,94,74,52,27.90,27.82,7,1,13,0.00
2012-10-22,42.0,39.6,37.0,39.0,36.4,33.0,96,88,73,27.84,27.58,5,1,10,0.30
2012-10-23,49.0,41.6,36.0,42.0,38.2,34.0,96,88,70,27.94,27.65,2,0,5,0.08
2012-10-24,42.0,40.3,38.0,40.0,38.0,36.0,95,92,87,28.17,27.93,4,1,9,0.55
2012-10-25,53.0,42.1,35.0,42.0,37.2,33.0,94,83,64,28.40,28.17,4,0,6,0.01
2012-10-26,43.0,40.5,39.0,41.0,38.4,36.0,95,92,83,28.39,28.09,1,0,3,0.48
2012-10-27,45.0,41.2,39.0,42.0,39.0,37.0,95,92,87,28.10,27.86,3,0,7,0.25
2012-10-28,53.0,45.0,39.0,48.0,43.2,37.0,97,93,83,27.93,27.82,2,0,4,0.19
2012-10-29,66.0,53.5,46.0,55.0,46.2,41.0,97,79,41,27.96,27.77,7,1,17,0.33
2012-10-30,59.0,51.9,48.0,52.0,48.4,43.0,96,88,71,27.96,27.82,5,0,11,0.14
2012-10-31,56.0,52.9,51.0,53.0,51.2,48.0,97,94,89,27.83,27.64,4,0,8,0.11
2012-11-1,60.0,52.0,47.0,52.0,48.4,45.0,97,88,73,27.99,27.71,5,1,10,0.01
2012-11-2,55.0,48.8,43.0,49.0,45.8,41.0,97,89,78,28.10,27.98,5,0,13,0.02
2012-11-3,57.0,50.4,46.0,51.0,47.9,45.0,97,91,79,28.12,28.01,1,0,6,0.02
2012-11-4,63.0,54.7,50.0,53.0,50.2,48.0,93,85,69,28.25,28.12,6,0,12,0.00
2012-11-5,64.0,55.2,47.0,49.0,43.2,36.0,98,68,39,28.25,28.12,16,5,26,0.00
2012-11-6,56.0,48.0,39.0,47.0,39.9,35.0,87,74,57,28.18,27.84,7,1,14,0.00
2012-11-7,55.0,48.5,40.0,44.0,33.3,29.0,74,56,43,28.03,27.89,8,5,17,0.00
2012-11-8,50.0,40.5,35.0,37.0,32.2,30.0,87,73,57,27.95,27.73,9,2,15,0.00
2012-11-9,45.0,38.2,34.0,37.0,33.0,29.0,89,81,71,27.94,27.76,3,0,6,0.00
2012-11-10,41.0,35.6,30.0,33.0,29.3,26.0,92,78,60,28.23,27.92,3,0,6,0.01
2012-11-11,38.0,31.5,25.0,32.0,28.2,23.0,95,88,73,28.34,28.22,0,0,3,0.01
2012-11-12,39.0,34.5,32.0,34.0,32.1,30.0,96,91,80,28.31,28.20,3,0,7,0.11
2012-11-13,40.0,37.1,34.0,35.0,33.9,32.0,95,88,81,28.31,28.20,5,1,8,0.17
2012-11-14,42.0,38.6,37.0,38.0,34.8,-99.9,91,88,84,28.37,28.20,4,0,8,0.01
2012-11-15,40.0,38.3,37.0,37.0,35.6,34.0,94,90,83,28.38,28.02,6,0,10,0.00
2012-11-16,43.0,40.3,38.0,39.0,37.0,35.0,95,88,80,28.03,27.92,4,1,10,0.00
2012-11-17,42.0,40.2,37.0,40.0,38.6,36.0,96,94,88,27.92,27.57,11,1,17,0.24
2012-11-18,47.0,39.5,32.0,42.0,37.1,31.0,98,92,82,27.86,27.69,2,0,7,0.04
2012-11-19,56.0,45.8,42.0,47.0,43.1,41.0,96,91,69,27.71,27.46,16,2,25,0.17
2012-11-20,50.0,43.3,39.0,46.0,40.7,37.0,95,91,84,27.73,27.56,19,1,29,0.05
2012-11-21,50.0,41.9,36.0,39.0,35.5,30.0,97,80,48,28.20,27.58,14,5,26,0.02
2012-11-22,46.0,41.2,36.0,36.0,34.2,32.0,88,76,64,28.43,28.19,11,2,16,0.01
2012-11-23,43.0,39.9,37.0,39.0,36.8,34.0,96,89,79,28.36,28.05,4,0,9,0.21
2012-11-24,47.0,39.1,34.0,41.0,35.5,31.0,97,87,64,28.22,28.04,11,2,17,0.08
2012-11-25,43.0,35.8,30.0,35.0,30.7,28.0,94,82,67,28.37,28.18,8,1,18,0.01
2012-11-26,38.0,32.1,26.0,32.0,29.1,25.0,96,89,77,28.37,28.21,1,0,3,0.00
2012-11-27,39.0,35.2,31.0,32.0,30.4,29.0,92,83,74,28.28,28.15,4,1,8,0.00
2012-11-28,39.0,35.8,33.0,35.0,31.9,30.0,97,86,76,28.15,27.82,4,1,8,0.08
2012-11-29,39.0,36.1,32.0,38.0,34.7,31.0,97,95,89,27.90,27.63,6,1,12,0.05
2012-11-30,44.0,39.9,37.0,41.0,37.6,35.0,96,92,84,27.63,27.52,5,0,10,0.02
2012-12-1,50.0,43.2,38.0,43.0,39.3,36.0,96,87,72,27.63,27.42,7,2,17,0.03
2012-12-2,51.0,42.5,37.0,41.0,37.6,34.0,96,84,51,27.78,27.20,14,3,23,0.12
2012-12-3,47.0,41.1,35.0,41.0,37.5,33.0,96,87,74,27.98,27.77,5,0,9,0.01
2012-12-4,44.0,42.1,39.0,42.0,40.0,38.0,96,92,86,27.81,27.67,10,1,17,0.24
2012-12-5,48.0,43.2,37.0,38.0,29.4,24.0,96,60,43,28.16,27.71,10,3,20,0.02
2012-12-6,41.0,35.7,31.0,36.0,30.3,-99.9,92,85,77,28.14,27.95,10,2,19,0.00
2012-12-7,43.0,38.5,35.0,38.0,33.6,28.0,93,83,67,28.06,27.82,15,5,26,0.08
2012-12-8,38.0,35.3,33.0,34.0,30.9,28.0,91,84,75,28.37,28.06,12,3,18,0.05
2012-12-9,38.0,32.8,29.0,32.0,29.3,27.0,94,87,74,28.42,28.21,2,0,7,0.00
2012-12-10,39.0,32.3,28.0,35.0,30.3,26.0,96,92,85,28.30,28.02,2,0,7,0.00
2012-12-11,37.0,33.0,30.0,34.0,31.4,29.0,97,95,89,28.03,27.58,2,0,6,0.02
2012-12-12,40.0,36.2,34.0,37.0,34.3,33.0,97,93,87,28.00,27.61,3,0,8,0.10
2012-12-13,37.0,33.8,32.0,34.0,32.0,31.0,96,93,88,28.04,27.86,4,0,8,0.02
2012-12-14,36.0,33.0,29.0,33.0,31.1,27.0,97,93,86,27.96,27.80,5,0,9,0.01
2012-12-15,33.0,32.0,29.0,32.0,30.7,27.0,96,95,91,27.97,27.62,1,0,4,0.01
2012-12-16,34.0,30.4,25.0,31.0,28.6,24.0,97,93,84,27.75,27.15,6,0,12,0.00
2012-12-17,44.0,36.3,32.0,36.0,31.2,26.0,97,83,55,27.83,27.09,15,4,25,0.27
2012-12-18,33.0,27.0,20.0,28.0,23.5,18.0,93,86,77,28.03,27.83,12,2,18,0.01
2012-12-19,29.0,25.8,21.0,27.0,24.0,19.0,95,92,90,28.04,27.78,4,0,7,0.00
2012-12-20,40.0,33.0,28.0,35.0,30.3,27.0,96,90,80,27.87,27.63,8,0,14,0.04
2012-12-21,34.0,31.1,29.0,33.0,29.3,26.0,97,93,88,27.93,27.77,5,0,10,0.02
2012-12-22,35.0,33.5,32.0,34.0,32.5,31.0,97,96,94,27.80,27.58,4,0,8,0.05
2012-12-23,37.0,34.3,33.0,34.0,32.7,32.0,97,94,87,27.86,27.68,6,0,11,0.09
2012-12-24,38.0,33.3,29.0,34.0,31.3,28.0,97,93,78,28.19,27.73,8,1,12,0.13
2012-12-25,34.0,31.0,29.0,32.0,29.9,28.0,97,96,91,28.18,27.86,1,0,5,0.01
2012-12-26,38.0,33.0,31.0,35.0,31.3,29.0,97,94,86,27.97,27.83,3,0,5,0.06
2012-12-27,37.0,32.6,30.0,33.0,30.4,28.0,97,92,85,28.20,27.97,2,0,5,0.08
2012-12-28,33.0,30.9,29.0,30.0,27.5,25.0,95,88,82,28.28,28.17,4,0,7,0.01
2012-12-29,32.0,29.4,27.0,28.0,26.4,25.0,96,89,82,28.28,28.16,2,0,7,0.00
2012-12-30,30.0,27.4,26.0,27.0,25.0,23.0,94,91,85,28.39,28.28,4,1,11,0.00
2012-12-31,31.0,27.2,23.0,26.0,24.3,20.0,95,88,79,28.55,28.34,1,0,5,0.00
2013-1-1,30.0,26.9,26.0,24.0,22.8,21.0,88,84,79,28.70,28.50,2,0,6,0.00